Погода в Савро

Украина / Днепропетровская область     48°18′38″N   33°37′30″E
темп.,
°C
ветер,
м/с
пор.,
м/с
влажн.,
%
обл.,
%
осадки,
мм/ч
давл.,
гПа
погр.,
м
11 апреля, вс
вс1100:00+6с47513 0.0 102696
03:00+5с47584 0.0 1027115
06:00+4ссв48670 0.0 1027134
09:00+9св59530 0.0 1028482
12:00+13ссв783995 0.0 10271397
15:00+14ссв783542 0.0 10251544
18:00+14ссв6941100 0.0 1025887
21:00+9с41055100 0.0 1025204
12 апреля, пн
пн1200:00+8ссв4106099 0.0 1024212
03:00+7ссв51162100 0.0 1023254
06:00+7ссв51064100 0.0 1022383
09:00+7св5879100 0.1 1021330
12:00+9св3479100 0.1 1021322
15:00+8ссв1191100 1.1 102187
18:00+10з118499 0.1 1020245
21:00+8юз119148 0.1 102111
13 апреля, вт
вт1300:00+9юз1184100 0.0 102011
03:00+9ююз2387100 0.0 102152
06:00+8юз2290100 0.0 102139
09:00+11ююз3473100 0.0 1021418
12:00+13ю4559100 0.0 10211264
15:00+15ю445351 0.0 10201421
18:00+13ююз346196 0.0 1019678
21:00+12ююв236498 0.0 102060
14 апреля, ср
ср1400:00+12ююз3465100 0.0 101979
03:00+9зюз347876 0.0 101984
06:00+7зюз22806 0.0 101926
09:00+12ю23635 0.0 1018378
12:00+15ююв455358 0.0 10181497
15:00+17ююв564738 0.0 10161813
18:00+15ююв4654100 0.0 1015461
21:00+13ююв61059100 0.0 1016475
15 апреля, чт
чт1500:00+10ююв4873100 0.0 1016290
03:00+9юв3777100 0.0 1015258
06:00+9вюв3775100 0.0 1015317
09:00+11юв6863100 0.0 1014658
12:00+13ю6663100 0.1 10141419
15:00+11вюв3476100 2.1 1013541
18:00+10ююв3690100 1.1 1013494
21:00+9ююз389127 1.4 1013309